Regional Weather Roundup
Issued by NWS

Home | Current Version | Previous Version | Graphics & Text | Print | Product List | Glossary Off
Versions: 1 2 3 4 5 6 7 8 9 10 11 12 13 14 15 16 17 18 19 20 21 22 23 24 25 26 27 28 29 30 31 32 33 34 35 36 37 38 39 40 41 42 43 44 45 46 47 48 49 50

000
ASUS43 KOAX 272010
RWRNE

WEATHER ROUNDUP FOR NEBRASKA
NATIONAL WEATHER SERVICE OMAHA NE
300 PM CDT TUE SEP 27 2016

NOTES: SATELLITE DATA IS BEING USED TO AUGMENT CLOUD COVER ABOVE
       12000 FEET.
       "FAIR" INDICATES FEW OR NO CLOUDS BELOW 12,000 FEET WITH NO
       SIGNIFICANT WEATHER AND/OR OBSTRUCTIONS TO VISIBILITY.

  * THESE STATIONS DO NOT REPORT WEATHER SUCH AS RAIN...SNOW OR FOG.

NEZ001>004-019>022-054>056-272100-
NEBRASKA PANHANDLE

CITY           SKY/WX    TMP DP  RH WIND       PRES   REMARKS
SCOTTSBLUFF    SUNNY     81  39  22 VRB6      30.08F
ALLIANCE       SUNNY     82  33  17 NW6       30.05F
CHADRON        SUNNY     83  37  19 NW12      30.02F
KIMBALL        SUNNY     79  37  21 SW3       30.14F
SIDNEY         SUNNY     82  36  19 MISG      30.11F
$$

NEZ057>060-069>072-079>082-272100-
SOUTHWEST NEBRASKA

CITY           SKY/WX    TMP DP  RH WIND       PRES   REMARKS
NORTH PLATTE   SUNNY     84  44  24 W15       30.00F
IMPERIAL       SUNNY     83  37  19 W8G18     30.05F
LEXINGTON      SUNNY     82  45  26 NW12      29.99F
MCCOOK         SUNNY     84  43  23 W14       30.01F
OGALLALA       SUNNY     85  40  20 W8        30.03F
$$

NEZ005>010-023>029-035>040-094-272100-
NORTH CENTRAL NEBRASKA

CITY           SKY/WX    TMP DP  RH WIND       PRES   REMARKS
VALENTINE      SUNNY     82  39  21 NW12      29.96F
AINSWORTH      SUNNY     79  44  28 NW16G22   29.97F
BROKEN BOW     SUNNY     84  44  24 NW14G26   29.97F
O`NEILL        SUNNY     78  39  24 W12G17    29.95F
ORD            SUNNY     80  43  26 W8G23     29.93F
THEDFORD       SUNNY     83  45  26 NW7G20    29.99F
$$

NEZ041-046>049-061>064-073>077-083>087-272100-
SOUTH CENTRAL NEBRASKA

CITY           SKY/WX    TMP DP  RH WIND       PRES   REMARKS
GRAND ISLAND   SUNNY     80  44  27 NW5       29.96F
AURORA         SUNNY     79  44  29 W9G21     29.96F
HASTINGS       SUNNY     80  42  25 NW12      29.98F
HEBRON         SUNNY     80  42  26 W6        29.95F
HOLDREGE       SUNNY     80  41  24 SW7       29.99F
KEARNEY *      SUNNY     81  43  26 W5        29.96F
YORK           SUNNY     79  45  29 NW10G18   29.95F
$$

NEZ011>018-030>034-042>045-272100-
NORTHEAST NEBRASKA

CITY           SKY/WX    TMP DP  RH WIND       PRES   REMARKS
NORFOLK        SUNNY     78  42  27 NW13      29.92F
ALBION         SUNNY     78  43  29 W14       29.94F
BLAIR          SUNNY     76  42  29 W13       29.92F
FREMONT        SUNNY     76  44  31 W15       29.92F
TEKAMAH        SUNNY     77  39  25 W15G24    29.91F
WAYNE          SUNNY     75  44  33 W10G17    29.92F
$$

NEZ050>053-065>068-078-088>093-272100-
SOUTHEAST NEBRASKA

CITY           SKY/WX    TMP DP  RH WIND       PRES   REMARKS
LINCOLN        SUNNY     81  43  26 W10       29.93F
OMAHA EPPLEY   SUNNY     78  43  28 W12       29.91F
BEATRICE       SUNNY     80  49  33 NW12G21   29.94F
FALLS CITY     SUNNY     78  51  38 W7        29.92F HAZE
NEBRASKA CITY  SUNNY     77  27  15 NW8       29.93F
PLATTSMOUTH    SUNNY     77  31  19 W7        29.92F
$$

NEZ044-045-051>053-067-272100-
OMAHA AREA

CITY           SKY/WX    TMP DP  RH WIND       PRES   REMARKS
OMAHA EPPLEY   SUNNY     78  43  28 W12       29.91F
BLAIR          SUNNY     76  42  29 W13       29.92F
FREMONT        SUNNY     76  44  31 W15       29.92F
MILLARD        SUNNY     76  44  32 W10       29.91F
OFFUTT AFB     SUNNY     76  45  33 NW13      29.91F
PLATTSMOUTH    SUNNY     77  31  19 W7        29.92F
WAHOO          FAIR      78  41  26 W8G17     29.92F
$$




USA.gov is the U.S. government's official web portal to all federal, state and local government web resources and services.